Time,TemperatureF,DewpointF,PressureIn,WindDirection,WindDirectionDegrees,WindSpeedMPH,WindSpeedGustMPH,Humidity,HourlyPrecipIn,Conditions,Clouds,dailyrainin,SoftwareType,DateUTC
2013-01-21 00:07:00,29.8,-1.7,29.47,West,271,0.0,0.0,25,0.00,,,0.00,VWS V14.01,2013-01-21 05:07:00,
2013-01-21 00:22:00,29.8,-1.7,29.47,West,271,0.0,0.0,25,0.00,,,0.00,VWS V14.01,2013-01-21 05:22:00,
2013-01-21 00:37:00,29.5,0.4,29.47,West,271,0.0,0.0,28,0.00,,,0.00,VWS V14.01,2013-01-21 05:37:00,
2013-01-21 00:52:00,29.5,0.4,29.47,West,271,0.0,0.0,28,0.00,,,0.00,VWS V14.01,2013-01-21 05:52:00,
2013-01-21 01:07:00,28.8,-0.2,29.47,West,271,0.0,0.0,28,0.00,,,0.00,VWS V14.01,2013-01-21 06:07:00,
2013-01-21 01:22:00,28.9,-0.1,29.47,West,271,0.0,0.0,28,0.00,,,0.00,VWS V14.01,2013-01-21 06:22:00,
2013-01-21 01:37:00,28.8,-0.2,29.47,West,271,0.0,0.0,28,0.00,,,0.00,VWS V14.01,2013-01-21 06:37:00,
2013-01-21 01:52:00,27.9,-1.0,29.47,West,271,0.0,0.0,28,0.00,,,0.00,VWS V14.01,2013-01-21 06:52:00,
2013-01-21 02:07:00,28.0,1.3,29.47,West,271,0.0,0.0,31,0.00,,,0.00,VWS V14.01,2013-01-21 07:07:00,
2013-01-21 02:22:00,27.9,1.2,29.47,West,271,0.0,0.0,31,0.00,,,0.00,VWS V14.01,2013-01-21 07:22:00,
2013-01-21 02:37:00,27.7,1.0,29.47,West,271,0.0,0.0,31,0.00,,,0.00,VWS V14.01,2013-01-21 07:37:00,
2013-01-21 02:52:00,28.0,1.3,29.47,West,271,0.0,0.0,31,0.00,,,0.00,VWS V14.01,2013-01-21 07:52:00,
2013-01-21 03:07:00,27.9,1.2,29.47,West,271,0.0,0.0,31,0.00,,,0.00,VWS V14.01,2013-01-21 08:07:00,
2013-01-21 03:22:00,27.7,1.0,29.44,West,271,0.0,0.0,31,0.00,,,0.00,VWS V14.01,2013-01-21 08:22:00,
2013-01-21 03:37:00,27.3,0.7,29.44,West,271,0.0,0.0,31,0.00,,,0.00,VWS V14.01,2013-01-21 08:37:00,
2013-01-21 03:52:00,27.3,0.7,29.44,West,271,0.0,0.0,31,0.00,,,0.00,VWS V14.01,2013-01-21 08:52:00,
2013-01-21 04:07:00,27.7,1.7,29.44,West,271,0.0,0.0,32,0.00,,,0.00,VWS V14.01,2013-01-21 09:07:00,
2013-01-21 04:22:00,28.0,2.0,29.44,West,271,0.0,0.0,32,0.00,,,0.00,VWS V14.01,2013-01-21 09:22:00,
2013-01-21 04:37:00,28.0,2.0,29.44,West,271,0.0,0.0,32,0.00,,,0.00,VWS V14.01,2013-01-21 09:37:00,
2013-01-21 04:52:00,28.4,2.3,29.44,West,271,0.0,0.0,32,0.00,,,0.00,VWS V14.01,2013-01-21 09:52:00,
2013-01-21 05:07:00,28.6,2.5,29.44,West,271,0.0,0.0,32,0.00,,,0.00,VWS V14.01,2013-01-21 10:07:00,
2013-01-21 05:22:00,28.8,2.6,29.41,West,271,0.0,0.0,32,0.00,,,0.00,VWS V14.01,2013-01-21 10:22:00,
2013-01-21 05:37:00,28.6,2.5,29.41,West,271,0.0,0.0,32,0.00,,,0.00,VWS V14.01,2013-01-21 10:37:00,
2013-01-21 05:52:00,28.8,2.6,29.41,West,271,0.0,0.0,32,0.00,,,0.00,VWS V14.01,2013-01-21 10:52:00,
2013-01-21 06:07:00,28.9,2.8,29.41,West,271,0.0,0.0,32,0.00,,,0.00,VWS V14.01,2013-01-21 11:07:00,
2013-01-21 06:22:00,29.1,3.0,29.41,West,271,0.0,0.0,32,0.00,,,0.00,VWS V14.01,2013-01-21 11:22:00,
2013-01-21 06:37:00,29.3,3.1,29.41,West,271,0.0,0.0,32,0.00,,,0.00,VWS V14.01,2013-01-21 11:37:00,
2013-01-21 06:52:00,29.3,3.1,29.41,West,271,0.0,0.0,32,0.00,,,0.00,VWS V14.01,2013-01-21 11:52:00,
2013-01-21 07:07:00,29.5,3.3,29.41,West,271,0.0,0.0,32,0.00,,,0.00,VWS V14.01,2013-01-21 12:07:00,
2013-01-21 07:22:00,29.5,3.3,29.41,West,271,0.0,0.0,32,0.00,,,0.00,VWS V14.01,2013-01-21 12:22:00,
2013-01-21 07:37:00,29.7,3.4,29.41,West,271,0.0,0.0,32,0.00,,,0.00,VWS V14.01,2013-01-21 12:37:00,
2013-01-21 07:52:00,29.8,3.6,29.41,West,271,0.0,0.0,32,0.00,,,0.00,VWS V14.01,2013-01-21 12:52:00,
2013-01-21 08:07:00,30.0,3.8,29.41,West,271,0.0,0.0,32,0.00,,,0.00,VWS V14.01,2013-01-21 13:07:00,
2013-01-21 08:22:00,30.2,3.9,29.41,West,271,0.0,0.0,32,0.00,,,0.00,VWS V14.01,2013-01-21 13:22:00,
2013-01-21 08:37:00,30.6,4.2,29.41,West,271,0.0,0.0,32,0.00,,,0.00,VWS V14.01,2013-01-21 13:37:00,
2013-01-21 08:52:00,31.1,4.7,29.41,West,271,0.0,0.0,32,0.00,,,0.00,VWS V14.01,2013-01-21 13:52:00,
2013-01-21 09:07:00,31.5,5.0,29.41,West,271,0.0,0.0,32,0.00,,,0.00,VWS V14.01,2013-01-21 14:07:00,
2013-01-21 09:22:00,31.8,4.6,29.41,West,271,0.0,0.0,31,0.00,,,0.00,VWS V14.01,2013-01-21 14:22:00,
2013-01-21 09:37:00,32.0,4.8,29.41,West,271,0.0,0.0,31,0.00,,,0.00,VWS V14.01,2013-01-21 14:37:00,
2013-01-21 09:52:00,32.5,5.3,29.41,West,271,0.0,0.0,31,0.00,,,0.00,VWS V14.01,2013-01-21 14:52:00,
2013-01-21 10:07:00,32.7,5.4,29.41,West,271,0.0,0.0,31,0.00,,,0.00,VWS V14.01,2013-01-21 15:07:00,
2013-01-21 10:22:00,33.4,6.1,29.41,West,271,0.0,0.0,31,0.00,,,0.00,VWS V14.01,2013-01-21 15:22:00,
2013-01-21 10:37:00,33.8,5.7,29.41,West,271,0.0,0.0,30,0.00,,,0.00,VWS V14.01,2013-01-21 15:37:00,
2013-01-21 10:52:00,34.3,6.1,29.41,West,271,0.0,0.0,30,0.00,,,0.00,VWS V14.01,2013-01-21 15:52:00,
2013-01-21 11:07:00,35.1,6.8,29.38,West,271,0.0,0.0,30,0.00,,,0.00,VWS V14.01,2013-01-21 16:07:00,
2013-01-21 11:22:00,36.9,3.5,29.38,SE,135,0.0,0.0,24,0.00,,,0.00,VWS V14.01,2013-01-21 16:22:00,
2013-01-21 11:37:00,37.4,3.9,29.38,SE,126,3.6,3.6,24,0.00,,,0.00,VWS V14.01,2013-01-21 16:37:00,
2013-01-21 11:52:00,37.8,4.2,29.35,ESE,121,0.0,3.6,24,0.00,,,0.00,VWS V14.01,2013-01-21 16:52:00,
2013-01-21 12:07:00,38.8,5.2,29.35,South,188,2.2,3.1,24,0.00,,,0.00,VWS V14.01,2013-01-21 17:07:00,
2013-01-21 12:22:00,39.4,4.7,29.32,SE,125,0.0,7.6,23,0.00,,,0.00,VWS V14.01,2013-01-21 17:22:00,
2013-01-21 12:37:00,40.3,5.4,29.32,SSE,168,3.1,5.8,23,0.00,,,0.00,VWS V14.01,2013-01-21 17:37:00,
2013-01-21 12:52:00,41.0,6.1,29.32,SSE,155,7.6,7.6,23,0.00,,,0.00,VWS V14.01,2013-01-21 17:52:00,
2013-01-21 13:07:00,41.5,6.5,29.29,SSE,160,6.3,7.6,23,0.00,,,0.00,VWS V14.01,2013-01-21 18:07:00,
2013-01-21 13:22:00,42.3,7.1,29.26,SSE,149,12.3,12.3,23,0.00,,,0.00,VWS V14.01,2013-01-21 18:22:00,
2013-01-21 13:37:00,43.2,7.9,29.29,SSW,200,2.7,12.3,23,0.00,,,0.00,VWS V14.01,2013-01-21 18:37:00,
2013-01-21 13:52:00,43.3,8.0,29.26,SSE,159,2.7,5.8,23,0.00,,,0.00,VWS V14.01,2013-01-21 18:52:00,
2013-01-21 14:07:00,43.7,8.3,29.26,SE,124,5.8,8.1,23,0.00,,,0.00,VWS V14.01,2013-01-21 19:07:00,
2013-01-21 14:22:00,43.7,8.3,29.26,ESE,106,3.6,5.8,23,0.00,,,0.00,VWS V14.01,2013-01-21 19:22:00,
2013-01-21 14:37:00,43.9,8.5,29.26,NNW,329,4.9,6.3,23,0.00,,,0.00,VWS V14.01,2013-01-21 19:37:00,
2013-01-21 14:52:00,43.3,8.0,29.26,ESE,120,3.1,7.2,23,0.00,,,0.00,VWS V14.01,2013-01-21 19:52:00,
2013-01-21 15:07:00,42.3,7.1,29.26,NNE,30,3.1,8.3,23,0.00,,,0.00,VWS V14.01,2013-01-21 20:07:00,
2013-01-21 15:22:00,41.5,6.5,29.26,SW,232,3.6,4.9,23,0.00,,,0.00,VWS V14.01,2013-01-21 20:22:00,
2013-01-21 15:37:00,40.5,5.6,29.26,WNW,287,2.7,4.0,23,0.00,,,0.00,VWS V14.01,2013-01-21 20:37:00,
2013-01-21 15:52:00,39.7,5.0,29.29,WNW,291,2.2,5.4,23,0.00,,,0.00,VWS V14.01,2013-01-21 20:52:00,
2013-01-21 16:07:00,39.4,4.7,29.29,SSW,202,2.7,4.0,23,0.00,,,0.00,VWS V14.01,2013-01-21 21:07:00,
2013-01-21 16:22:00,38.8,5.2,29.29,NNE,25,5.4,5.4,24,0.00,,,0.00,VWS V14.01,2013-01-21 21:22:00,
2013-01-21 16:37:00,38.1,4.5,29.29,East,86,5.4,5.4,24,0.00,,,0.00,VWS V14.01,2013-01-21 21:37:00,
2013-01-21 16:52:00,37.6,4.1,29.32,South,185,0.0,5.4,24,0.00,,,0.00,VWS V14.01,2013-01-21 21:52:00,
2013-01-21 17:07:00,37.0,1.7,29.32,SSE,167,2.7,6.3,22,0.00,,,0.00,VWS V14.01,2013-01-21 22:07:00,
2013-01-21 17:22:00,36.5,1.3,29.32,SE,135,0.0,6.3,22,0.00,,,0.00,VWS V14.01,2013-01-21 22:22:00,
2013-01-21 17:37:00,36.1,1.0,29.32,NNW,335,0.0,0.0,22,0.00,,,0.00,VWS V14.01,2013-01-21 22:37:00,
2013-01-21 17:52:00,35.1,0.1,29.35,SW,236,0.0,2.7,22,0.00,,,0.00,VWS V14.01,2013-01-21 22:52:00,
2013-01-21 18:07:00,34.5,-0.4,29.35,North,353,0.0,3.6,22,0.00,,,0.00,VWS V14.01,2013-01-21 23:07:00,
2013-01-21 18:22:00,34.3,-0.6,29.35,WNW,284,2.7,5.4,22,0.00,,,0.00,VWS V14.01,2013-01-21 23:22:00,
2013-01-21 18:37:00,34.0,-0.9,29.35,South,176,0.0,5.4,22,0.00,,,0.00,VWS V14.01,2013-01-21 23:37:00,
2013-01-21 18:52:00,33.6,-0.2,29.35,South,179,0.0,6.3,23,0.00,,,0.00,VWS V14.01,2013-01-21 23:52:00,
2013-01-21 19:07:00,33.3,-0.5,29.38,NE,38,0.0,5.4,23,0.00,,,0.00,VWS V14.01,2013-01-22 00:07:00,
2013-01-21 19:22:00,32.7,-1.0,29.35,NW,320,0.0,3.1,23,0.00,,,0.00,VWS V14.01,2013-01-22 00:22:00,
2013-01-21 19:37:00,32.2,-1.4,29.38,SW,216,0.0,2.7,23,0.00,,,0.00,VWS V14.01,2013-01-22 00:37:00,
2013-01-21 19:52:00,32.0,-1.6,29.38,South,186,3.1,3.1,23,0.00,,,0.00,VWS V14.01,2013-01-22 00:52:00,
2013-01-21 20:07:00,31.6,-1.9,29.38,SE,143,0.0,4.9,23,0.00,,,0.00,VWS V14.01,2013-01-22 01:07:00,
2013-01-21 20:22:00,31.3,-2.2,29.38,NNW,330,0.0,4.5,23,0.00,,,0.00,VWS V14.01,2013-01-22 01:22:00,
2013-01-21 20:37:00,31.1,-2.4,29.38,ESE,120,2.2,7.2,23,0.00,,,0.00,VWS V14.01,2013-01-22 01:37:00,
2013-01-21 20:52:00,30.7,-2.7,29.38,SE,133,3.1,5.8,23,0.00,,,0.00,VWS V14.01,2013-01-22 01:52:00,
2013-01-21 21:07:00,30.2,-3.1,29.41,SE,139,0.0,5.4,23,0.00,,,0.00,VWS V14.01,2013-01-22 02:07:00,
2013-01-21 21:22:00,30.2,-3.1,29.41,South,184,8.7,8.7,23,0.00,,,0.00,VWS V14.01,2013-01-22 02:22:00,
2013-01-21 21:37:00,29.5,-3.7,29.41,ENE,67,3.1,8.7,23,0.00,,,0.00,VWS V14.01,2013-01-22 02:37:00,
2013-01-21 21:52:00,28.8,-4.3,29.41,ESE,119,4.0,4.0,23,0.00,,,0.00,VWS V14.01,2013-01-22 02:52:00,
2013-01-21 22:07:00,28.0,-5.0,29.44,ESE,113,0.0,4.0,23,0.00,,,0.00,VWS V14.01,2013-01-22 03:07:00,
2013-01-21 22:22:00,27.5,-5.4,29.44,South,169,3.6,5.8,23,0.00,,,0.00,VWS V14.01,2013-01-22 03:22:00,
2013-01-21 22:37:00,27.1,-5.7,29.44,South,183,0.0,3.6,23,0.00,,,0.00,VWS V14.01,2013-01-22 03:37:00,
2013-01-21 22:52:00,26.8,-6.0,29.44,SSE,159,2.7,3.6,23,0.00,,,0.00,VWS V14.01,2013-01-22 03:52:00,
2013-01-21 23:07:00,26.4,-5.5,29.44,SSE,158,3.6,4.0,24,0.00,,,0.00,VWS V14.01,2013-01-22 04:07:00,
2013-01-21 23:22:00,26.1,-5.8,29.47,SSW,197,0.0,5.8,24,0.00,,,0.00,VWS V14.01,2013-01-22 04:22:00,
2013-01-21 23:37:00,25.3,-6.4,29.47,ESE,111,2.7,8.3,24,0.00,,,0.00,VWS V14.01,2013-01-22 04:37:00,
2013-01-21 23:52:00,25.0,-6.7,29.47,WNW,303,4.0,5.4,24,0.00,,,0.00,VWS V14.01,2013-01-22 04:52:00,